This is the latest recevied weather packets stored in our database for station/object N5SRF. If no packets are shown the sender has not sent any weather packets the latest 10 day(s).
| Time | Temp. | Humidity | Pressure | Rain* | Wind** | Luminosity | Snow |
|---|---|---|---|---|---|---|---|
| 1778007746 | 27.78° C | 82% | 1012.8 hPa | 0 mm | - | 417 W/m² | - |
| 1778007442 | 27.78° C | 83% | 1012.8 hPa | 0 mm | - | 258 W/m² | - |
| 1778007139 | 27.78° C | 84% | 1012.8 hPa | 0 mm | - | 264 W/m² | - |
| 1778006829 | 27.22° C | 84% | 1012.7 hPa | 0 mm | - | 299 W/m² | - |
| 1778006527 | 27.22° C | 82% | 1012.9 hPa | 0 mm | - | 202 W/m² | - |
| 1778006223 | 27.22° C | 83% | 1013 hPa | 0 mm | - | 272 W/m² | - |
| 1778005921 | 27.22° C | 82% | 1012.9 hPa | 0 mm | - | 249 W/m² | - |
| 1778005616 | 27.78° C | 82% | 1013 hPa | 0 mm | - | 365 W/m² | - |
| 1778005314 | 27.22° C | 83% | 1012.9 hPa | 0 mm | - | 394 W/m² | - |
| 1778005004 | 27.22° C | 84% | 1013.1 hPa | 0 mm | - | 302 W/m² | - |
| 1778004702 | 26.67° C | 84% | 1013.1 hPa | 0 mm | - | 251 W/m² | - |
| 1778004398 | 27.22° C | 83% | 1013.2 hPa | 0 mm | - | 280 W/m² | - |
| 1778004096 | 26.67° C | 84% | 1013.1 hPa | 0 mm | - | 222 W/m² | - |
| 1778003792 | 26.67° C | 84% | 1013.1 hPa | 0 mm | - | 215 W/m² | - |
| 1778003488 | 26.67° C | 84% | 1013 hPa | 0 mm | - | 274 W/m² | - |
| 1778003185 | 27.22° C | 83% | 1013.3 hPa | 0 mm | - | 173 W/m² | - |
| 1778002881 | 27.22° C | 83% | 1013.3 hPa | 0 mm | - | 273 W/m² | - |
| 1778002577 | 27.22° C | 83% | 1013.2 hPa | 0 mm | - | 234 W/m² | - |
| 1778002274 | 26.67° C | 85% | 1013.1 hPa | 0 mm | - | 304 W/m² | - |
| 1778001972 | 26.67° C | 84% | 1013.3 hPa | 0 mm | - | 276 W/m² | - |
| 1778001668 | 26.11° C | 86% | 1013.2 hPa | 0 mm | - | 328 W/m² | - |
| 1778001363 | 25.56° C | 88% | 1013.2 hPa | 0 mm | - | 283 W/m² | - |
| 1778001060 | 25° C | 89% | 1013.3 hPa | 0 mm | - | 307 W/m² | - |
| 1778000757 | 25° C | 89% | 1013.5 hPa | 0 mm | - | 133 W/m² | - |
| 1778000453 | 25.56° C | 88% | 1013.4 hPa | 0 mm | - | 93 W/m² | - |
* Rain latest hour (hover to see other rain measurements)
** Current wind speed in m/s (hover to see current wind gust speed)